Location: Seven Kings
(51.5667°N, 0.1000°E)
Time: 03:34:01
(UTC+00:00)

ATLAS 2AS CENTAUR R/B - Pass Details

Date: 29 October 2020
Orbit: 939 x 1273 km, 63.7° (Epoch: 23 November)

Event Time Altitude Azimuth Distance (km) Brightness Sun altitude
Rises 18:11:33 0° 310° (NW) 4,196 6.5 -15.1°
Reaches altitude 10° 18:14:30 10° 315° (NW) 3,196 5.8 -15.6°
Maximum altitude 18:22:03 55° 33° (NNE) 1,379 3.1 -16.8°
Enters shadow 18:26:17 25° 101° (E) 2,099 3.6 -17.4°
